Weather History for VDSR - May, 2013

Change the Weather History Date:

Tuesday, May 28, 2013

  Actual Average Record
Temperature  
Mean Temperature 90 °F -  
Max Temperature 98 °F - - ()
Min Temperature 82 °F - - ()
Cooling Degree Days 25    
Growing Degree Days 40 (Base 50)    
Moisture  
Dew Point 72 °F    
Average Humidity 58    
Maximum Humidity 79    
Minimum Humidity 37    
Precipitation  
Precipitation 0.00 in - - ()
Sea Level Pressure  
Sea Level Pressure 29.73 in    
Wind  
Wind Speed 4 mph ()    
Max Wind Speed 17 mph    
Max Gust Speed 29 mph    
Visibility 5.9 miles    
Events      
T = Trace of Precipitation, MM = Missing Value Source: Averaged Metar Reports

Daily Weather History Graph

Daily Weather History Graph

Search for Another Location

Airport or City:

Trip Planner

Search our weather history database for the weather conditions in past years. The results will help you decide how hot, cold, wet, or windy it might be!

Date:

Astronomy

May. 28, 2013 Rise Set
Actual Time 5:36 AM ICT 6:27 PM ICT
Civil Twilight 5:13 AM ICT 6:50 PM ICT
Nautical Twilight 4:46 AM ICT 7:17 PM ICT
Astronomical Twilight 4:18 AM ICT 7:45 PM ICT
Moon 9:42 PM ICT (5/28) 8:37 AM ICT (5/28)
Length of Visible Light 13h 36m
Length of Day
12h 50m
Waning Gibbous, 87% of the Moon is Illuminated
May 28
Waning Gibbous
Jun 1
Last Quarter
Jun 8
New
Jun 17
First Quarter
Jun 23
Full

Hourly Weather History & Observations

Time (ICT) Temp. Heat Index Dew Point Humidity Pressure Visibility Wind Dir Wind Speed Gust Speed Precip Events Conditions
12:00 AM 84.2 °F 89.6 °F 71.6 °F 66% 29.74 in 5.6 mi Variable 3.5 mph - N/A   Partly Cloudy
12:30 AM 82.4 °F 88.2 °F 73.4 °F 74% 29.71 in 5.6 mi Variable 3.5 mph - N/A   Partly Cloudy
1:00 AM 82.4 °F 88.2 °F 73.4 °F 74% 29.71 in 5.6 mi Variable 3.5 mph - N/A   Partly Cloudy
7:00 AM 82.4 °F 89.5 °F 75.2 °F 79% 29.77 in 5.6 mi NNW 2.3 mph - N/A   Scattered Clouds
7:30 AM 84.2 °F 92.3 °F 75.2 °F 74% 29.77 in 5.6 mi NNW 3.5 mph - N/A   Scattered Clouds
8:00 AM 86.0 °F 93.4 °F 73.4 °F 66% 29.80 in 6.2 mi NNW 4.6 mph - N/A   Scattered Clouds
8:30 AM 87.8 °F 97.6 °F 75.2 °F 66% 29.80 in 6.2 mi NW 5.8 mph - N/A   Scattered Clouds
9:00 AM 87.8 °F 97.6 °F 75.2 °F 66% 29.80 in 6.2 mi WNW 4.6 mph - N/A   Partly Cloudy
9:30 AM 89.6 °F 98.2 °F 73.4 °F 59% 29.80 in 6.2 mi West 5.8 mph - N/A   Partly Cloudy
10:00 AM 93.2 °F 102.4 °F 73.4 °F 52% 29.77 in 6.2 mi WNW 8.1 mph - N/A   Partly Cloudy
10:30 AM 93.2 °F 102.4 °F 73.4 °F 52% 29.77 in 6.2 mi WNW 8.1 mph - N/A   Partly Cloudy
11:00 AM 95.0 °F 103.2 °F 71.6 °F 47% 29.77 in 6.2 mi WNW 6.9 mph - N/A   Partly Cloudy
11:30 AM 95.0 °F 103.2 °F 71.6 °F 47% 29.77 in 6.2 mi WNW 6.9 mph - N/A   Partly Cloudy
12:00 PM 96.8 °F 105.1 °F 71.6 °F 44% 29.74 in 6.2 mi NW 6.9 mph - N/A   Partly Cloudy
12:30 PM 95.0 °F 99.5 °F 68.0 °F 41% 29.74 in 6.2 mi WSW 5.8 mph - N/A   Partly Cloudy
1:00 PM 96.8 °F 103.1 °F 69.8 °F 41% 29.71 in 6.2 mi WSW 4.6 mph - N/A   Partly Cloudy
1:30 PM 98.6 °F 104.1 °F 68.0 °F 37% 29.71 in 6.2 mi West 5.8 mph - N/A   Partly Cloudy
2:30 PM 96.8 °F 103.1 °F 69.8 °F 41% 29.68 in 6.2 mi NW 10.4 mph - N/A   Partly Cloudy
3:30 PM 98.6 °F 104.1 °F 68.0 °F 37% 29.65 in 6.2 mi Variable 2.3 mph - N/A   Partly Cloudy
4:00 PM 98.6 °F 104.1 °F 68.0 °F 37% 29.65 in 6.2 mi Variable 3.5 mph - N/A   Partly Cloudy
5:00 PM 87.8 °F 91.4 °F 68.0 °F 52% 29.65 in 5.6 mi WNW 17.3 mph 28.8 mph N/A   Scattered Clouds
5:30 PM 87.8 °F 91.4 °F 68.0 °F 52% 29.65 in 5.6 mi West 10.4 mph - N/A   Scattered Clouds
6:00 PM 87.8 °F 92.6 °F 69.8 °F 55% 29.65 in 5.6 mi Variable 3.5 mph - N/A   Scattered Clouds
6:30 PM 87.8 °F 92.6 °F 69.8 °F 55% 29.68 in 6.2 mi SSW 3.5 mph - N/A   Scattered Clouds
7:00 PM 87.8 °F 93.8 °F 71.6 °F 58% 29.68 in 6.2 mi SSE 3.5 mph - N/A   Scattered Clouds
7:30 PM 86.0 °F 93.4 °F 73.4 °F 66% 29.68 in 6.2 mi Variable 1.2 mph - N/A   Scattered Clouds
8:00 PM 86.0 °F 93.4 °F 73.4 °F 66% 29.71 in 6.2 mi Variable 2.3 mph - N/A   Scattered Clouds
8:30 PM 86.0 °F 93.4 °F 73.4 °F 66% 29.71 in 5.6 mi SE 3.5 mph - N/A   Scattered Clouds
9:00 PM 86.0 °F 93.4 °F 73.4 °F 66% 29.74 in 5.6 mi ESE 5.8 mph - N/A   Scattered Clouds
9:30 PM 86.0 °F 93.4 °F 73.4 °F 66% 29.74 in 5.6 mi SW 3.5 mph - N/A   Scattered Clouds
10:00 PM 86.0 °F 95.1 °F 75.2 °F 70% 29.74 in 5.6 mi South 3.5 mph - N/A   Scattered Clouds
10:30 PM 86.0 °F 93.4 °F 73.4 °F 66% 29.77 in 5.6 mi SE 4.6 mph - N/A   Scattered Clouds
11:00 PM 86.0 °F 93.4 °F 73.4 °F 66% 29.77 in 5.6 mi SSE 3.5 mph - N/A   Scattered Clouds
11:30 PM 86.0 °F 93.4 °F 73.4 °F 66% 29.77 in 5.6 mi West 3.5 mph - N/A   Scattered Clouds